Weather History for Palm Springs, CA

Change the Weather History Date:

Wednesday, February 22, 2012

  Actual Average Record
Temperature  
Mean Temperature 70 °F 61 °F  
Max Temperature 86 °F 74 °F 90 °F (1954)
Min Temperature 54 °F 49 °F 28 °F (1955)
Degree Days  
Heating Degree Days 0 4  
Month to date heating degree days 108 129  
Since 1 July heating degree days 660 756  
Cooling Degree Days 5 1  
Month to date cooling degree days 17 21  
Year to date cooling degree days 29 29  
Growing Degree Days 20 (Base 50)    
Moisture  
Dew Point 32 °F    
Average Humidity 26    
Maximum Humidity 41    
Minimum Humidity 11    
Precipitation  
Precipitation 0.00 in 0.05 in 0.91 in (2004)
Month to date precipitation 0.38 0.79  
Year to date precipitation 0.41 1.79  
Since 1 July precipitation 1.89 4.59  
Snow  
Snow 0.00 in - - ()
Month to date snowfall 0.0  
Year to date snowfall 0.0  
Since 1 July snowfall 0.0  
Snow Depth 0.00 in    
Sea Level Pressure  
Sea Level Pressure 30.01 in    
Wind  
Wind Speed 5 mph (West)    
Max Wind Speed 14 mph    
Max Gust Speed 15 mph    
Visibility 10 miles    
Events      
T = Trace of Precipitation, MM = Missing Value Source: NWS Daily Summary

Daily Weather History Graph

Daily Weather History Graph

Search for Another Location

Airport:

Trip Planner

Search our weather history database for the weather conditions in past years. The results will help you decide how hot, cold, wet, or windy it might be!

Date:

Astronomy

Feb. 22, 2012 Rise Set
Actual Time 6:23 AM PST 5:36 PM PST
Civil Twilight 5:58 AM PST 6:01 PM PST
Nautical Twilight 5:29 AM PST 6:30 PM PST
Astronomical Twilight 5:00 AM PST 6:59 PM PST
Moon 6:28 AM PST (2/22) 6:41 PM PST (2/22)
Length of Visible Light 12h 03m
Length of Day
11h 12m
New Moon, 1% of the Moon is Illuminated
Feb 22
New Moon
Feb 29
First Quarter
Mar 8
Full
Mar 14
Last Quarter
Mar 22
New

Hourly Weather History & Observations

Time (PST) Temp. Dew Point Humidity Pressure Visibility Wind Dir Wind Speed Gust Speed Precip Events Conditions
12:53 AM 59.0 °F 30.0 °F 33% 30.13 in 10.0 mi NW 6.9 mph - N/A   Clear
1:53 AM 57.0 °F 28.9 °F 34% 30.11 in 10.0 mi NNW 11.5 mph - N/A   Clear
2:53 AM 55.9 °F 32.0 °F 40% 30.10 in 10.0 mi Variable 4.6 mph - N/A   Clear
3:53 AM 57.2 °F 30.2 °F 36% 30.10 in 10.0 mi North 6.9 mph - N/A   Clear
4:53 AM 59.0 °F 32.0 °F 36% 30.09 in 10.0 mi Calm Calm - N/A   Clear
5:53 AM 57.9 °F 32.0 °F 37% 30.10 in 10.0 mi Variable 3.5 mph - N/A   Clear
6:53 AM 62.1 °F 34.0 °F 35% 30.11 in 10.0 mi WNW 5.8 mph - N/A   Clear
7:53 AM 64.9 °F 34.0 °F 32% 30.12 in 10.0 mi Calm Calm - N/A   Clear
8:53 AM 73.0 °F 36.0 °F 26% 30.12 in 10.0 mi Calm Calm - N/A   Clear
9:53 AM 78.1 °F 32.0 °F 19% 30.10 in 10.0 mi South 3.5 mph - N/A   Clear
10:53 AM 80.1 °F 32.0 °F 17% 30.08 in 10.0 mi South 6.9 mph - N/A   Clear
11:53 AM 81.0 °F 30.9 °F 16% 30.04 in 10.0 mi Variable 4.6 mph - N/A   Clear
12:53 PM 82.9 °F 30.9 °F 15% 30.00 in 10.0 mi SE 6.9 mph - N/A   Clear
1:53 PM 84.0 °F 30.0 °F 14% 29.96 in 10.0 mi Variable 6.9 mph - N/A   Clear
2:53 PM 86.0 °F 28.9 °F 13% 29.94 in 10.0 mi SSE 4.6 mph - N/A   Clear
3:53 PM 86.0 °F 27.0 °F 12% 29.92 in 10.0 mi ESE 4.6 mph - N/A   Clear
4:53 PM 82.9 °F 28.0 °F 14% 29.90 in 10.0 mi SSE 3.5 mph - N/A   Scattered Clouds
5:53 PM 78.1 °F 30.9 °F 18% 29.90 in 10.0 mi Calm Calm - N/A   Clear
6:53 PM 73.0 °F 36.0 °F 26% 29.91 in 10.0 mi NNE 8.1 mph - N/A   Clear
7:53 PM 70.0 °F 37.0 °F 30% 29.91 in 10.0 mi SSW 4.6 mph - N/A   Clear
8:53 PM 69.1 °F 36.0 °F 30% 29.92 in 10.0 mi West 6.9 mph - N/A   Clear
9:53 PM 69.1 °F 33.1 °F 26% 29.91 in 10.0 mi NW 3.5 mph - N/A   Clear
10:53 PM 64.9 °F 35.1 °F 33% 29.90 in 10.0 mi NW 6.9 mph - N/A   Clear
11:53 PM 62.1 °F 32.0 °F 32% 29.88 in 10.0 mi NNW 9.2 mph - N/A   Clear